Regional Weather Roundup
Issued by NWS Newport/Morehead, NC

Current Version | Previous Version | Text Only | Print | Product List | Glossary Off
Versions: 1 2 3 4 5 6 7 8 9 10 11 12 13 14 15 16 17 18 19 20 21 22 23 24 25 26 27 28 29 30 31 32 33 34 35 36 37 38 39 40 41 42 43 44 45 46 47 48 49 50
000 ASUS42 KMHX 230725 RWRMHX WEATHER ROUNDUP FOR EASTERN NORTH CAROLINA NATIONAL WEATHER SERVICE NEWPORT/MOREHEAD CITY NC 300 AM EDT SUN JUL 23 2017 NOTE: "FAIR" INDICATES FEW OR NO CLOUDS BELOW 12,000 FEET WITH NO SIGNIFICANT WEATHER AND/OR OBSTRUCTIONS TO VISIBILITY NCZ015>017-031-032-045>047-102-103-230800- NORTH COAST CITY SKY/WX TMP DP RH WIND PRES REMARKS EDENTON CLEAR 82 75 79 SW9G16 29.85S ELIZABETH CITY PTCLDY 80 76 87 SW9 29.83F KITTY HAWK SUNNY 81 73 78 SW8G17 29.83F MANTEO CLEAR 80 75 85 SW14 29.85F $$ NCZ045>047-081-094-103-104-230800- CENTRAL COAST CITY SKY/WX TMP DP RH WIND PRES REMARKS FRISCO CLEAR 77 74 90 SW12 29.89F $$ NCZ095-097-098-100-101-230800- SOUTHERN COAST CITY SKY/WX TMP DP RH WIND PRES REMARKS BEAUFORT CLEAR 82 78 88 SW13G24 29.90S CEDAR ISLAND NOT AVBL JACKSONVILLE CLEAR 78 76 93 SW8 29.90S PINEY ISLAND SUNNY N/A N/A N/A SW13 29.89F WILMINGTON CLEAR 79 76 90 SW10 29.91F $$ NCZ011>013-027>030-043-044-078>080-089-090>093-098-230800- COASTAL PLAIN CITY SKY/WX TMP DP RH WIND PRES REMARKS AHOSKIE N/A 78 75 89 CALM 29.83S CLINTON CLEAR 78 77 97 S3 29.89F ELIZABETHTOWN NOT AVBL GOLDSBORO NOT AVBL GREENVILLE CLEAR 79 75 89 SW8 29.88S HAVELOCK CLEAR 79 75 87 SW9 29.90F KENANSVILLE CLEAR 77 73 88 SW6 29.89F KINSTON CLEAR 78 74 88 SW8 29.88F NEW BERN CLEAR 77 75 93 SW7 29.90F RICHLANDS CLEAR 77 74 90 SW8 29.91F ROCKY MOUNT CLEAR 80 75 84 S9 29.85F WASHINGTON CLEAR 78 74 87 SW8 29.86F WHITEVILLE CLEAR 78 73 85 SW3 29.91S $$ AMZ130-135-150-152-154-156-158-170-250-252-270-ANZ085-086-088-633-658-670-230800- MARINE OBSERVATIONS STATION/POSITION TIME TEMP WIND PRES WAVE SWELL AIR SEA DIR/SP/G HT/PER HT/PER (UTC) (F) (DEG/KT/KT) (MB) (FT/S) (FT/S) CHESAPEAKE LIGHT NOT AVBL 64 E VA BEACH 0650 80 80 220/ 17/ 21 1009.8 5/ 6 2/ 8 DUCK 0654 81 60 230/ 15/ 22 1009.9 2 E DUCK 0700 62 N/A 2/11 OREGON INLET 0648 81 85 210/ 18/ 22 1010.8 13E OREGON INLT 0648 79 N/A 4/ 5 2/ 9 HATTERAS CG 0654 77 76 240/ 9/ 13 1012.0 DIAMOND BUOY 0650 83 84 240/ 23/ 25 1012.0 5/ 6 2/ 9 CAPE LOOKOUT 0700 81 230/ 14/ 22 1012.1 BEAUFORT LAB 0654 81 80 230/ 6/ 16 1011.9 30 SE NEW RVR IN 0708 81 82 240/ 16/ 23 1012.9 30 SE NEW RVR IN 0643 82 N/A 5/ 5 27 SE WRIGHTSVLE 0708 82 82 230/ 16/ 21 1013.1 5 SE WRIGHTSVLE 0708 80 78 220/ 12/ 19 1012.8 225 S CAPE HAT 0650 83 83 220/ 16/ 19 1016.4 5/ 9 3/ 9 41 SE CHARLESTON 0700 81 83 220/ 17/ 21 1013.9 $$

USA.gov is the U.S. government's official web portal to all federal, state and local government web resources and services.